Starlink 3621

operational
NORAD ID: 51769 Int'l Des: 2022-017 Owner: SPXS Country: US Constellation: starlink
LEOCIRCULAR

Über Starlink 3621

Beschreibung wird geladen...

Live-Position

3D-Globus wird geladen...

Nächste Überflüge

Höhenverlauf

Altitude vs Time

uPlot chart will show altitude changes over time

Zweizeiliger Elementsatz

1 51769U 22017B 25353.13180209 .00000993 00000-0 80490-4 0 9998
2 51769 53.2188 340.7595 0001485 87.2980 272.8183 15.08833770210446
Epoch: 19. Dez. 2025 • Age: 16 hours

Aktueller Status

Höhe 543.7 km
Geschwindigkeit 7.60 km/s
Subsatellitenpunkt 45.67°N, 85.82°E
Startdatum 25. Feb. 2022
Alter 3.8 years
Typ internet

Technische Details

Klassifizierung Payload
Masse 297.00 kg
Trockenmasse 275.00 kg
Gesamtmasse 297.00 kg
Länge 0.20 m
Durchmesser 2.80 m
Spannweite 9.00 m
Form Box + pan
Hersteller SPXS
Bus-Typ Starlink
Phasenstatus In Orbit
Besitzer/Staat SPXS/US

Große Konstellationen

Loading constellations...